Theta_e
332 336 340 346 352 352 353 354 353 354 353 353 353 353 353 352 352 352 351 350 350 348 348 347 347 347 348 348 348 348 348 348 349 348 348 348 348 348 348 349 349 350 350 351 350 350 350 349 349 349 348 347 346 345 347 347 347 347 347 348 349 349 349 349 349 348 347 348 350 350 349 350 350 351 350 351 351 352 351 350 349 347 347 350 353
332 335 340 342 350 352 353 353 353 353 353 353 353 353 353 352 351 351 350 349 348 348 347 347 347 347 347 347 348 348 348 348 348 348 347 348 348 348 348 349 349 349 350 350 350 350 349 349 349 348 347 346 345 345 345 345 345 345 345 346 347 347 347 348 347 346 345 346 347 348 348 349 349 350 350 351 351 352 350 350 349 346 344 352 353
333 336 340 342 349 351 353 353 352 352 353 353 352 352 352 352 351 350 349 349 348 347 347 347 347 348 348 348 348 348 348 348 348 347 347 347 347 347 348 348 348 349 349 349 350 348 348 347 346 345 344 343 342 342 342 342 342 342 343 344 344 345 345 345 345 344 342 343 345 345 344 344 348 349 349 349 349 350 350 349 349 347 346 350 351
333 336 340 343 346 349 352 353 353 352 352 352 352 352 352 351 350 349 349 348 349 348 348 348 348 348 347 347 347 347 347 347 347 347 347 347 347 348 348 348 348 349 348 348 348 347 345 344 343 342 341 340 340 340 339 339 339 339 340 341 342 342 342 342 342 340 340 341 342 342 341 336 339 347 347 348 347 349 349 348 348 348 349 348 349
333 337 341 343 345 346 350 352 353 353 353 352 352 352 351 350 350 349 349 348 348 347 347 347 348 347 347 348 348 348 348 347 347 347 347 348 348 348 347 348 348 348 348 348 347 346 344 342 341 340 338 338 337 337 337 337 337 336 336 338 339 340 340 339 338 338 339 338 339 338 336 337 338 347 346 346 347 347 347 347 348 349 348 349 349
333 337 340 343 344 345 348 351 353 352 352 352 352 352 351 350 349 348 348 348 347 347 347 348 348 348 348 348 348 348 348 348 348 348 348 348 347 347 347 347 347 348 347 347 346 345 344 343 341 339 337 336 335 335 335 335 334 334 334 333 334 337 338 335 336 339 339 335 336 330 334 335 336 342 347 347 346 345 345 345 347 348 348 348 348
333 337 340 343 344 344 345 351 353 353 352 352 352 351 350 349 349 348 348 348 348 348 348 348 348 348 347 348 348 348 348 348 348 348 348 347 347 347 347 346 346 346 347 346 345 344 343 342 341 339 337 336 335 334 334 334 333 332 331 331 331 334 335 335 337 337 336 331 327 330 333 336 336 337 347 347 346 346 346 346 347 347 347 347 347
333 337 340 342 343 343 345 350 353 353 352 352 352 351 350 349 349 347 348 348 348 348 348 349 348 347 347 348 348 348 348 348 348 348 347 347 347 347 346 346 346 346 346 345 344 342 341 340 340 339 337 335 334 333 332 332 331 330 330 330 331 332 335 337 336 338 339 332 332 335 336 334 336 338 346 347 346 345 347 346 346 346 346 346 344
334 337 340 342 342 342 344 348 352 353 353 352 352 351 349 349 349 348 348 348 348 348 348 348 348 348 348 348 349 348 348 347 347 347 347 346 346 346 346 344 344 345 345 343 342 340 340 339 338 338 336 334 332 331 330 330 329 329 328 329 332 334 336 335 336 337 335 330 332 334 333 334 335 336 345 346 345 345 344 344 345 345 345 344 343
333 336 339 341 342 341 343 348 352 352 353 352 352 351 350 349 349 348 348 348 348 348 348 348 348 349 348 348 348 348 348 347 346 346 345 346 346 345 343 342 342 342 342 341 339 338 337 337 336 335 335 332 330 329 328 328 327 327 328 329 333 336 335 335 334 333 326 327 329 329 332 340 334 336 343 344 345 343 342 342 342 340 342 341 342
332 335 338 339 340 341 345 349 351 351 352 352 351 350 350 349 349 348 348 348 348 348 348 348 348 349 348 348 347 348 347 346 346 345 344 344 344 343 342 341 341 340 340 340 337 337 336 336 334 333 333 330 328 328 327 326 326 325 327 331 332 334 334 332 329 322 325 326 327 328 338 341 331 333 342 343 342 341 340 340 341 341 340 340 340
333 334 337 338 338 340 344 348 350 351 351 351 351 350 350 349 349 349 348 349 348 348 348 348 348 348 348 348 348 348 347 346 346 345 343 343 343 341 340 339 339 339 338 338 337 335 335 334 333 332 331 328 327 327 326 325 323 325 327 329 331 331 331 329 321 320 320 321 323 323 325 330 331 338 341 340 341 340 339 339 339 339 339 338 338
332 333 335 336 337 339 343 347 348 350 351 352 351 350 349 349 349 349 348 348 348 348 348 349 348 348 349 348 348 348 347 346 346 345 343 343 342 341 339 339 338 337 337 336 337 337 336 333 332 332 330 327 326 325 323 324 323 323 325 328 329 329 328 327 317 319 319 318 320 321 322 324 329 340 338 338 338 337 337 337 338 338 338 337 337
330 333 334 335 337 336 340 344 346 349 350 352 351 350 349 349 349 349 349 348 348 348 349 349 348 348 349 348 348 347 347 346 345 344 343 342 342 341 339 338 337 336 335 336 334 334 335 334 331 331 329 326 324 323 324 323 323 322 324 326 328 328 324 323 322 316 318 318 320 320 320 324 323 338 335 336 334 335 334 335 336 336 336 336 335
331 330 332 334 335 337 335 341 343 345 347 350 350 349 350 349 349 349 349 348 348 349 349 349 349 349 349 348 347 347 347 346 344 344 342 342 340 340 339 338 337 336 335 334 332 332 332 331 331 330 328 325 324 323 323 321 321 322 323 325 327 326 323 314 316 314 317 318 317 319 320 323 338 335 335 333 333 333 333 332 333 334 335 334 334
326 330 331 333 334 336 337 337 339 342 343 346 346 347 348 348 348 348 349 348 348 348 348 348 349 348 349 348 347 347 347 345 344 344 343 341 341 340 339 338 337 336 334 332 332 331 331 330 331 328 326 324 323 322 319 320 319 321 322 325 325 324 322 317 312 312 314 316 315 318 318 323 335 333 332 332 332 331 331 331 331 332 332 332 331
323 325 330 332 332 335 338 339 338 336 337 339 341 343 345 346 347 348 348 347 347 347 347 347 348 348 348 347 346 346 345 345 344 344 343 342 341 339 338 337 336 334 333 332 332 331 330 331 329 327 325 323 322 321 320 319 319 320 321 324 324 323 321 317 313 311 313 316 316 316 317 322 332 334 333 332 331 330 329 328 330 330 330 330 329
320 326 330 331 331 333 337 339 340 339 340 337 336 338 341 344 345 345 344 345 345 346 346 345 346 346 345 343 342 341 342 343 343 343 342 340 340 340 339 336 334 333 333 332 331 331 330 330 328 326 324 323 321 321 320 318 318 318 319 321 322 321 319 315 309 309 312 317 311 316 315 333 332 332 332 332 331 330 328 328 329 329 327 327 327
318 325 328 329 331 332 336 339 339 341 341 341 343 340 336 338 341 341 341 343 343 342 342 342 341 341 341 339 338 336 335 336 337 337 339 336 335 332 335 337 334 333 332 331 331 330 329 329 328 326 324 323 321 320 318 317 317 317 318 318 318 318 316 312 307 307 309 309 311 313 316 330 330 331 330 330 329 328 329 329 328 327 326 327 327
315 324 327 328 329 331 334 338 340 341 342 342 343 343 335 333 337 339 339 340 340 339 339 338 334 332 333 333 332 333 330 333 329 332 332 334 331 327 331 336 335 334 332 331 331 330 329 329 327 325 324 322 321 318 314 314 316 315 316 316 314 312 305 304 304 306 306 311 312 309 326 330 329 330 330 329 328 328 327 326 326 327 327 327 327
317 318 325 329 329 330 333 336 338 340 342 342 343 343 342 332 333 333 334 334 336 335 335 332 328 326 327 327 326 334 334 334 331 333 325 329 323 323 328 334 336 335 334 333 331 330 329 328 327 325 324 323 319 316 314 314 314 314 314 312 308 302 302 303 304 306 306 306 310 308 330 329 328 330 329 329 329 328 327 328 327 327 327 326 326
316 316 318 325 331 331 333 335 337 339 341 341 342 343 343 335 340 339 336 335 332 330 332 333 328 329 326 330 334 333 332 332 331 327 328 327 323 321 323 329 333 333 332 333 331 330 329 328 327 325 324 321 315 297 297 305 311 312 311 306 298 298 299 300 301 303 304 304 307 317 329 328 328 328 328 328 328 328 328 327 327 327 327 326 325
316 316 317 323 330 332 333 334 335 337 339 340 341 342 342 340 340 341 339 333 332 330 333 330 329 329 326 325 327 331 330 329 329 327 326 321 323 320 322 326 330 330 329 331 332 331 329 327 326 325 323 317 298 293 292 289 288 304 302 295 294 296 297 298 299 299 300 306 304 320 329 327 328 328 328 328 328 327 326 327 326 326 326 326 325
317 315 319 317 325 331 332 334 334 336 338 339 340 341 341 340 340 340 339 338 337 335 335 333 330 330 329 326 324 326 328 327 324 321 321 323 322 319 321 322 325 325 323 325 328 329 329 328 326 325 314 301 293 293 292 289 289 289 292 292 292 294 297 298 300 298 296 303 303 321 326 329 328 327 327 327 327 326 326 327 326 325 325 325 325
311 314 316 318 320 327 331 332 334 335 336 338 338 339 339 339 340 340 339 338 337 336 336 335 332 330 328 325 323 323 324 324 322 322 321 321 319 319 320 321 318 316 320 314 315 316 317 312 312 307 298 297 293 291 291 289 291 292 293 292 292 293 296 297 296 297 300 296 301 320 323 327 328 327 327 324 325 326 327 326 325 325 325 325 325
305 311 316 314 317 321 327 330 332 333 335 337 338 338 338 338 338 340 339 338 337 336 335 334 332 330 327 325 323 322 322 321 321 321 320 319 319 318 319 317 316 314 313 311 311 310 308 307 306 302 296 294 292 290 291 291 288 290 293 293 292 293 293 294 295 297 297 295 298 317 320 323 327 330 326 325 325 326 326 325 325 325 324 324 324
305 309 311 312 315 318 319 324 330 332 333 336 337 337 337 337 337 337 337 336 336 335 334 333 331 329 327 325 324 322 321 321 320 320 319 318 318 318 317 315 316 314 311 311 309 307 306 304 303 301 296 295 294 293 291 291 289 290 292 292 292 291 292 293 294 295 295 296 300 314 318 320 325 328 329 328 326 326 326 325 325 324 324 324 325
302 306 308 310 311 315 318 320 326 329 331 333 335 336 336 336 336 335 334 332 333 334 333 332 330 328 326 325 324 324 322 320 320 319 318 317 318 317 316 314 314 313 310 309 308 305 305 303 302 298 297 295 295 293 292 291 290 290 292 292 291 290 291 293 293 293 293 294 295 304 315 318 322 325 329 331 327 325 326 325 324 324 323 324 324
299 300 303 308 310 314 318 321 322 325 328 332 333 335 335 335 334 334 333 331 331 332 333 330 328 326 326 324 323 323 321 321 319 319 318 317 316 316 315 315 313 313 312 309 307 305 303 302 302 300 297 295 293 293 292 292 290 290 291 291 291 290 290 291 292 293 293 293 294 298 312 316 319 322 326 329 329 326 326 325 325 324 324 324 323
300 301 301 302 308 312 316 320 321 322 324 330 332 333 333 333 334 333 333 331 329 331 329 329 328 326 324 324 323 323 322 321 320 319 318 318 317 316 315 314 314 313 312 311 306 305 304 301 301 300 298 296 293 292 293 292 292 291 290 291 291 292 290 291 292 293 293 293 293 296 308 312 315 320 323 326 329 327 327 326 325 324 324 324 323
301 305 305 304 305 309 313 316 317 317 318 325 329 332 331 332 332 333 333 332 330 329 327 327 327 325 324 323 323 323 323 322 321 319 318 317 316 315 315 314 313 312 312 312 306 307 303 303 303 301 298 296 295 292 292 292 291 292 291 291 292 290 291 290 292 292 293 294 293 294 298 308 313 317 320 322 326 328 327 326 326 326 324 325 324
301 303 305 307 309 309 311 313 315 316 317 319 320 326 328 329 329 330 331 332 332 329 326 326 323 324 323 322 321 321 319 319 319 318 318 316 315 315 314 313 313 312 311 311 308 305 304 301 300 299 298 297 295 292 291 290 291 292 290 291 290 290 291 290 291 292 293 293 293 294 295 299 307 313 317 320 324 326 327 326 326 325 325 325 324
300 301 302 303 306 309 312 313 314 313 315 316 316 320 322 325 326 327 328 326 328 329 330 329 328 326 324 322 322 321 319 320 318 318 316 316 314 313 310 311 311 309 308 305 304 302 301 300 298 296 295 294 294 293 292 290 290 291 290 292 290 290 290 290 291 291 293 293 293 293 294 295 296 304 310 314 320 323 324 326 326 325 326 325 324
299 300 300 300 302 306 310 311 310 313 313 314 314 313 315 318 320 322 322 323 324 324 323 323 323 323 321 319 317 317 316 315 316 314 313 313 310 309 309 309 309 306 306 304 304 301 302 299 299 296 297 295 294 293 291 292 290 289 290 290 289 290 290 290 290 292 292 293 293 292 294 293 293 296 298 307 312 319 323 323 324 326 325 325 325
298 298 298 299 300 301 305 309 310 309 310 311 312 313 311 314 314 316 318 321 320 322 320 321 318 319 318 317 316 316 315 315 314 313 311 310 309 308 308 309 307 306 305 303 304 301 302 302 297 298 293 292 291 291 290 291 289 290 290 290 290 290 288 290 289 289 291 293 293 292 294 294 295 295 298 295 301 308 318 321 322 323 323 323 324
296 297 298 298 299 299 300 302 305 309 309 309 309 311 312 313 313 312 314 314 314 315 314 315 315 315 317 316 316 315 315 315 314 313 314 312 312 311 310 307 305 305 305 302 303 302 300 299 295 297 295 293 291 291 289 289 288 289 288 289 289 289 289 288 289 289 290 291 293 292 294 295 294 294 299 295 297 299 313 317 320 321 322 322 322
295 295 296 297 297 298 298 299 300 303 308 310 310 310 311 312 312 313 313 313 313 313 313 313 314 313 313 314 313 314 315 314 314 313 315 313 312 311 309 307 305 305 304 302 302 302 300 299 294 294 297 298 292 291 288 288 288 287 287 287 288 289 289 289 289 289 290 289 290 291 293 294 294 300 295 294 296 295 303 313 316 318 317 318 320
295 295 295 296 296 296 297 298 298 300 303 307 308 309 310 311 311 311 310 312 311 311 312 313 312 312 312 311 310 310 309 310 310 310 311 311 311 310 308 307 306 305 304 303 303 300 300 300 298 293 293 294 292 292 291 288 288 288 288 287 287 286 287 287 289 291 289 289 288 290 293 293 293 294 294 294 294 294 295 302 310 312 309 311 317
294 294 295 295 295 296 296 296 297 298 300 303 306 307 308 309 308 308 308 308 308 308 310 310 309 310 310 311 311 310 308 309 309 309 310 309 309 308 307 305 305 305 304 302 301 299 298 297 299 296 290 291 292 290 290 289 288 287 288 287 285 285 287 286 289 289 288 288 289 291 290 292 292 294 294 293 292 292 295 295 294 294 295 307 314
293 294 294 294 294 294 295 295 296 297 298 300 302 304 304 303 303 303 302 302 302 302 303 305 307 307 308 309 310 310 310 309 308 308 308 307 307 306 305 303 304 303 303 302 301 299 299 296 296 297 293 290 289 287 286 287 287 286 287 287 285 286 286 287 287 287 288 288 288 288 289 290 291 293 293 293 292 292 294 295 294 294 294 300 309
292 292 292 292 293 293 293 293 294 295 296 296 298 299 300 300 300 299 297 298 298 298 298 299 301 303 304 304 306 307 308 308 307 307 307 306 305 304 304 302 302 302 302 303 302 300 298 297 296 294 295 292 290 286 287 287 287 286 284 285 287 285 287 287 287 287 288 287 286 286 287 288 289 290 292 292 292 292 292 294 294 294 294 293 297
291 291 291 291 292 292 292 293 293 294 294 295 295 296 296 296 298 296 296 296 296 296 295 296 296 298 298 299 299 301 303 304 305 306 305 304 304 302 301 302 301 300 299 299 298 297 295 295 294 293 292 294 294 289 288 289 286 286 286 283 281 284 287 287 287 288 288 287 287 287 288 288 288 288 289 290 291 291 291 292 293 294 293 294 295
290 290 291 291 291 291 292 292 292 293 293 294 294 294 294 295 296 295 295 295 295 295 295 294 295 295 295 296 296 297 299 299 299 300 303 302 301 301 300 299 300 300 299 299 298 296 295 295 294 295 293 289 291 289 289 290 288 282 282 283 281 282 284 283 286 287 288 287 287 287 288 287 288 287 287 287 289 290 290 290 290 292 293 293 293
289 290 290 290 291 291 291 291 291 292 292 293 294 293 294 294 294 295 295 294 293 294 294 294 294 294 293 294 294 294 295 295 296 296 298 298 297 298 297 295 295 294 296 297 296 296 295 294 294 293 294 293 289 290 289 290 287 286 286 285 280 280 282 283 282 283 285 288 287 287 287 288 288 286 285 286 287 287 288 288 288 290 291 292 292
288 288 289 289 290 290 290 290 291 291 291 292 292 293 293 293 293 294 294 293 293 292 292 292 292 292 292 292 292 292 292 292 293 293 293 294 295 295 295 295 294 293 294 293 294 294 294 295 294 293 293 294 294 291 290 289 289 289 288 282 282 283 281 281 280 283 281 284 285 287 287 287 287 286 286 286 286 286 287 286 287 287 287 288 289
287 288 288 289 289 290 290 290 290 291 290 291 291 292 292 291 291 290 289 289 288 288 288 288 289 289 289 290 291 291 291 291 291 291 291 292 292 293 293 294 293 293 293 292 292 292 293 293 293 293 293 292 293 292 290 289 290 290 287 285 287 285 283 281 283 283 280 283 283 283 285 286 284 285 285 285 286 286 286 287 287 286 286 286 287
286 287 288 288 289 289 289 289 289 290 290 290 291 291 290 290 290 289 288 288 287 287 288 289 289 289 289 289 290 290 290 290 290 290 290 290 290 291 291 292 292 292 291 291 291 292 292 291 292 292 292 293 292 290 290 291 289 288 289 289 286 284 283 284 284 283 284 281 281 281 284 284 284 284 285 286 286 286 286 286 286 287 286 286 286
286 286 287 287 287 287 287 288 288 289 289 290 290 290 289 289 288 288 288 287 287 286 287 288 288 288 288 288 288 288 289 289 289 289 289 289 289 289 290 290 291 291 291 291 290 290 290 290 289 290 290 290 291 290 290 290 289 289 288 288 288 287 282 283 283 284 283 282 285 282 281 282 283 284 285 286 286 286 286 286 286 286 286 286 286
285 285 285 286 286 286 286 286 286 287 287 288 288 288 289 288 287 287 286 287 286 286 286 287 286 286 286 286 286 286 287 287 287 287 288 288 288 288 288 289 289 290 290 291 290 289 288 288 289 289 288 289 289 290 290 290 289 289 288 286 286 287 286 284 283 283 283 283 284 284 284 280 281 282 284 285 286 286 287 287 286 286 286 286 286
284 285 285 285 285 285 285 285 285 285 285 286 286 286 286 286 285 285 284 284 284 284 284 284 284 284 284 284 285 285 285 285 286 286 286 287 287 287 287 287 288 288 289 289 289 290 290 289 288 287 287 287 288 287 288 289 289 289 288 288 286 284 284 283 282 282 282 283 282 284 285 284 284 285 284 284 285 286 286 286 286 286 286 286 286
283 284 284 284 284 284 284 284 284 284 284 284 284 284 285 285 284 284 283 283 283 283 283 282 283 283 283 283 283 283 284 284 285 285 285 286 286 286 286 286 287 287 287 288 288 288 289 288 288 286 286 286 287 287 287 287 288 287 287 287 287 287 286 285 283 282 283 282 281 282 283 283 284 285 285 284 285 286 286 285 285 286 286 286 287
Wind_Speed
6 9 8 11 13 15 18 18 16 15 15 14 13 12 13 13 13 13 11 9 9 8 8 8 7 8 8 9 9 9 9 8 9 8 7 7 6 6 6 5 6 7 9 10 10 11 12 12 11 10 10 10 10 10 10 9 9 8 9 9 10 11 12 12 12 11 11 11 10 10 9 9 11 11 11 12 12 12 12 11 10 7 5 7 12
11 9 9 8 14 14 17 17 17 16 16 15 13 13 13 12 11 12 12 11 10 9 8 8 8 8 8 8 8 8 8 8 7 7 7 6 6 6 5 5 6 8 9 10 10 11 12 11 11 10 10 9 9 9 8 8 8 8 9 9 10 10 11 11 10 10 10 9 9 10 9 8 10 10 11 11 12 12 12 11 11 6 3 10 11
9 9 9 10 13 13 14 16 17 17 17 15 14 13 12 10 11 11 11 11 11 11 10 9 9 8 8 8 7 7 7 7 7 6 6 5 6 6 6 6 6 8 8 10 12 11 12 11 11 10 10 9 9 9 9 9 8 9 8 9 9 9 9 9 9 9 9 9 8 9 9 9 8 9 10 11 11 12 12 11 10 9 6 10 9
12 9 9 11 14 13 13 14 15 16 16 16 14 12 11 11 11 11 10 11 11 11 11 11 10 9 8 8 8 7 7 7 7 6 5 5 6 5 5 6 7 8 9 10 11 12 12 11 11 11 10 9 9 9 8 8 8 8 8 8 8 8 8 8 7 7 7 7 7 7 4 4 4 9 9 9 11 11 10 12 11 11 11 10 12
9 9 9 9 10 12 14 14 15 15 14 16 15 14 13 13 12 12 12 11 11 11 11 12 12 10 9 8 8 8 8 8 7 7 6 6 6 6 6 6 7 8 9 10 10 12 11 11 11 11 10 9 9 8 8 7 7 7 7 7 7 8 8 7 7 7 6 5 4 5 3 4 4 6 9 10 10 10 9 10 12 12 12 13 12
8 8 8 9 9 10 14 14 15 16 16 15 15 15 14 14 13 13 13 12 12 12 12 12 11 11 10 9 8 8 8 8 8 8 8 8 7 7 6 7 7 7 8 8 9 11 10 10 10 10 9 9 9 8 8 8 7 7 6 6 6 7 7 6 6 5 5 3 3 2 3 3 3 3 8 9 10 10 9 10 11 12 13 14 14
9 8 8 9 8 9 14 15 16 15 16 16 15 15 15 15 14 14 14 13 13 13 12 11 11 10 9 9 9 8 8 8 8 9 9 9 8 7 8 6 7 7 8 8 7 7 8 9 9 9 9 9 9 8 8 8 8 7 6 6 6 6 6 5 4 4 3 4 3 2 3 3 3 2 7 8 8 10 11 11 11 12 13 14 14
5 7 8 9 8 10 14 15 16 16 17 16 16 16 15 14 14 14 14 14 14 13 13 12 11 10 9 9 8 9 8 8 8 8 8 9 9 7 7 7 7 7 8 6 7 7 6 6 7 8 9 9 8 8 8 8 8 8 7 7 6 6 5 3 3 3 5 3 3 3 3 2 2 2 7 10 10 9 11 11 11 11 12 13 11
7 7 8 9 8 13 14 15 16 18 18 18 15 15 15 15 14 14 14 15 14 14 13 12 11 11 10 9 9 8 9 9 10 11 10 9 9 8 7 6 6 6 6 6 6 5 6 5 6 7 8 8 8 8 8 8 8 8 7 7 7 6 5 4 3 5 4 3 3 3 3 3 2 3 7 10 10 11 12 10 9 11 12 11 11
6 6 7 8 8 13 14 15 16 18 18 17 16 14 16 16 15 15 15 14 14 14 14 12 12 11 11 10 9 10 10 11 11 10 9 9 9 8 6 6 6 8 5 4 5 3 4 4 4 6 8 8 8 8 8 8 8 7 7 7 7 7 6 5 5 4 3 3 3 3 2 3 0 1 7 10 11 11 10 8 6 6 6 10 11
7 7 7 7 8 13 14 15 15 16 17 16 16 15 17 17 16 16 16 15 14 14 14 13 13 12 12 11 11 11 11 11 11 11 9 7 8 7 6 5 6 5 4 6 3 4 3 3 5 4 6 7 8 8 8 8 7 7 7 7 7 7 6 6 5 3 3 3 3 2 2 3 2 2 7 8 9 9 8 7 5 5 7 8 9
6 5 6 6 9 13 14 15 15 15 16 16 16 16 17 17 16 16 16 16 16 15 14 13 12 12 12 11 12 12 13 12 12 12 11 9 8 7 5 4 3 2 3 2 4 2 2 2 2 4 6 6 6 7 7 7 6 6 6 6 8 8 7 7 4 4 3 3 3 2 2 2 2 4 7 6 7 7 6 6 6 6 5 5 5
5 5 5 5 6 11 14 15 15 16 15 16 17 19 18 17 17 16 16 16 16 15 14 12 12 12 12 12 13 13 12 12 13 13 13 11 9 8 6 5 3 2 1 2 4 6 7 2 1 4 7 6 5 6 6 6 5 5 5 6 7 7 7 7 4 4 4 3 3 3 2 1 0 6 5 5 4 4 4 5 5 5 5 5 5
6 6 5 5 6 10 14 15 15 15 16 15 18 17 17 17 17 16 16 16 15 15 14 12 12 12 11 12 13 13 12 13 14 13 14 12 10 8 8 6 4 3 2 4 3 5 6 5 1 5 7 6 5 5 5 4 4 3 4 6 6 7 6 5 5 4 4 4 3 3 3 2 1 2 3 4 3 4 4 3 3 4 5 5 4
8 7 6 5 5 7 13 14 14 15 15 15 16 16 16 16 16 15 15 15 14 13 13 12 11 11 11 13 13 13 13 13 11 11 12 11 9 8 7 7 5 3 4 6 2 3 3 2 4 6 7 5 5 4 4 3 3 3 4 5 6 6 6 4 4 3 4 3 3 3 4 3 3 5 4 3 3 3 3 2 1 2 3 4 4
4 6 6 6 5 6 8 11 13 13 13 14 14 14 15 15 15 15 14 14 13 13 12 12 11 10 9 10 13 14 13 13 12 11 10 9 9 8 8 6 6 5 5 4 4 3 2 2 7 7 6 4 3 2 2 2 2 2 4 6 5 5 5 5 3 3 3 3 3 3 3 3 7 2 2 4 4 3 2 2 1 1 0 1 2
3 4 6 6 6 6 8 8 9 12 12 12 13 13 14 14 14 14 13 13 13 12 11 11 11 10 9 10 11 11 11 12 11 10 8 8 9 8 7 7 6 5 5 4 4 4 4 7 7 6 4 3 2 1 2 2 1 2 4 6 5 5 5 4 4 3 3 2 3 3 2 2 4 5 4 4 3 3 3 2 2 1 1 1 2
3 4 6 6 6 6 7 8 8 8 8 9 11 12 13 13 13 13 13 12 12 12 11 11 10 10 10 10 10 10 10 11 11 10 9 8 8 7 6 6 6 6 6 5 6 5 5 9 7 5 4 2 0 0 1 1 1 2 4 6 5 5 5 5 3 2 3 3 3 2 2 2 4 4 3 3 4 3 3 2 2 2 1 1 1
3 4 5 5 6 5 7 7 7 7 8 7 7 10 13 12 13 12 12 12 11 11 11 10 9 9 10 10 10 10 9 10 11 10 10 9 8 7 7 5 7 7 6 6 6 5 5 8 7 4 3 2 1 0 0 1 1 2 5 5 5 5 6 4 3 3 3 3 2 3 3 1 3 3 3 4 3 3 3 3 2 2 2 3 3
2 4 5 5 5 6 6 7 7 8 7 7 7 7 10 12 12 12 11 11 11 10 9 9 9 8 9 10 10 8 8 9 11 9 10 9 8 7 7 6 7 7 7 7 6 6 6 6 6 5 3 3 2 1 1 0 2 3 5 5 5 5 4 3 3 3 2 2 2 2 4 4 2 3 3 3 4 4 3 3 4 4 6 5 4
1 4 4 5 5 6 7 6 7 8 8 7 7 7 8 11 10 12 12 11 10 9 9 8 7 7 7 8 8 6 4 5 8 6 9 6 8 8 7 6 6 6 6 6 7 7 7 7 6 5 4 3 4 4 4 1 2 4 5 5 5 4 2 3 3 2 2 2 2 2 5 5 3 3 4 4 4 4 4 4 4 4 4 4 4
4 4 4 4 5 6 7 7 6 8 7 6 5 6 6 8 7 7 7 8 8 8 6 4 5 3 6 6 4 3 3 3 4 5 5 5 6 8 7 7 6 6 6 7 7 7 7 7 7 5 5 6 6 2 2 5 5 5 5 5 4 3 2 2 2 2 1 2 2 4 6 3 4 3 4 4 4 4 5 4 4 5 5 3 4
6 6 5 5 5 5 5 7 8 8 8 7 5 5 5 5 6 6 6 7 6 6 5 5 4 4 4 3 3 4 3 2 3 4 4 5 5 7 7 6 6 6 6 7 6 6 7 8 7 6 6 7 3 2 1 1 1 4 4 3 3 2 2 2 2 2 1 1 2 5 6 3 5 4 4 4 4 4 4 4 3 3 4 4 4
4 3 5 4 5 6 8 7 8 7 7 6 5 5 5 5 5 4 5 6 6 6 5 5 5 5 5 4 3 3 4 4 3 4 5 4 4 5 6 5 5 5 6 5 5 5 7 7 7 6 7 3 2 1 1 0 0 1 2 2 3 2 2 2 1 1 1 1 1 5 5 5 5 4 5 4 5 5 5 5 4 3 2 4 5
3 4 5 4 4 6 6 6 6 7 8 6 6 5 4 5 6 5 4 4 5 6 5 5 5 5 5 5 5 4 4 4 4 4 3 2 2 2 1 1 1 1 2 2 1 2 3 3 2 4 3 3 2 1 1 1 0 0 1 1 2 2 2 1 2 1 0 0 1 4 5 5 4 6 5 5 6 6 5 4 4 5 5 5 6
4 5 5 2 4 4 4 4 6 7 8 7 7 5 5 5 5 7 4 4 5 5 6 5 5 6 5 5 5 5 4 4 4 4 3 3 3 2 2 1 1 2 0 2 1 1 2 3 4 4 2 2 2 2 1 1 2 1 0 0 1 2 2 2 2 2 1 1 1 4 4 6 5 5 6 6 6 6 7 6 5 5 4 4 5
5 8 4 4 4 4 4 3 6 6 8 6 6 5 4 4 5 5 7 5 5 6 4 5 5 5 6 5 6 5 5 4 4 4 4 3 4 3 4 3 3 3 1 3 2 1 2 3 2 3 2 2 1 1 1 1 1 2 1 1 1 2 3 3 3 3 2 2 2 3 4 4 6 6 6 9 7 7 8 7 6 6 6 5 7
6 6 5 4 3 4 5 5 6 6 6 6 6 6 5 4 4 4 3 4 4 6 6 4 5 5 4 5 5 6 6 5 4 4 4 3 4 4 2 2 2 3 1 2 3 1 1 1 2 1 2 1 2 2 2 2 2 1 2 2 1 2 3 3 3 3 3 2 2 3 3 4 5 7 8 9 9 8 10 7 9 7 5 7 9
8 8 7 5 4 4 5 7 6 6 5 5 6 5 5 4 4 4 4 3 2 1 5 6 2 3 7 5 3 4 4 4 4 4 4 4 3 3 3 3 2 3 3 2 3 4 2 2 1 2 1 1 1 3 3 4 3 3 3 3 3 3 3 3 3 3 3 3 2 3 4 5 6 7 8 9 9 10 10 9 11 7 8 10 9
8 7 7 5 4 3 5 7 7 5 4 5 5 5 5 5 5 4 4 4 3 3 3 5 5 4 2 6 5 5 5 5 5 5 6 7 7 6 5 5 6 5 4 5 4 4 5 2 1 1 1 1 2 3 3 5 4 4 3 4 3 4 3 3 3 4 3 3 3 3 5 5 6 7 8 9 11 9 11 11 11 9 9 9 10
7 9 8 8 5 2 1 1 2 3 4 4 4 5 4 5 4 4 4 4 3 2 2 3 6 5 4 3 6 6 5 6 6 6 5 4 3 4 5 4 4 4 4 5 4 5 5 5 5 4 3 2 3 2 3 5 5 5 4 4 5 3 4 3 3 3 3 3 3 3 3 6 5 6 7 9 11 12 12 12 11 12 10 11 11
10 10 8 7 8 7 3 1 1 3 4 3 2 3 4 4 4 4 5 6 6 4 3 4 2 3 5 5 3 3 3 3 4 4 5 4 4 5 4 5 6 5 5 5 5 5 5 4 3 2 1 0 2 3 2 3 5 6 4 4 4 3 4 3 3 3 3 3 4 3 3 4 5 6 6 8 10 11 12 12 11 12 11 12 10
6 7 8 11 11 9 7 5 3 3 3 2 1 1 1 2 4 4 4 4 5 7 8 7 7 7 6 7 7 7 7 7 6 6 5 5 4 4 5 5 4 3 3 3 3 3 3 3 3 3 2 1 1 3 2 2 4 5 4 5 5 5 4 3 4 3 4 4 3 3 3 3 3 5 6 6 6 6 7 8 13 13 13 12 10
7 7 11 14 9 8 7 7 7 4 4 4 4 3 2 2 2 2 2 3 3 3 3 3 3 3 4 3 2 3 4 3 4 4 5 5 5 5 5 5 5 3 3 4 5 4 4 3 3 3 3 3 4 4 3 5 6 4 4 4 4 5 4 4 4 5 3 4 4 3 4 4 4 4 3 6 5 5 6 5 6 10 13 13 12
8 11 12 9 11 11 8 8 9 8 7 5 4 4 3 3 3 2 2 3 3 4 3 3 3 3 2 3 3 3 3 3 5 5 4 5 5 5 5 6 4 5 4 4 5 3 4 5 3 4 2 2 3 3 3 5 4 6 5 3 5 5 4 4 4 4 4 4 5 4 4 4 4 4 4 4 5 5 4 4 5 5 4 3 6
11 9 9 10 13 12 11 11 11 10 8 7 6 6 6 5 5 5 5 5 4 4 4 3 3 2 1 1 2 3 3 4 4 4 5 5 5 5 6 3 4 5 4 4 4 5 4 3 3 4 4 5 3 5 2 4 3 4 3 4 5 4 5 4 4 5 5 4 5 4 4 5 4 4 4 4 4 3 5 4 3 3 3 3 4
10 11 11 11 13 13 13 13 12 10 9 9 9 8 8 8 8 8 7 7 6 5 5 4 4 3 3 3 3 3 3 2 1 1 3 4 5 5 3 4 4 4 4 4 4 3 4 4 3 4 4 6 5 5 4 3 4 4 3 4 4 4 5 4 5 5 4 4 4 4 4 5 4 5 5 5 5 3 4 5 4 3 3 3 4
10 10 10 10 9 9 10 11 10 10 8 8 8 8 8 9 8 8 9 9 8 7 6 6 6 4 4 4 3 2 2 2 2 2 2 2 1 1 0 2 3 3 4 4 4 3 3 4 5 4 5 4 5 5 6 4 3 4 4 5 4 3 4 5 5 4 5 5 4 5 6 4 4 5 5 5 4 4 3 4 5 4 5 5 5
9 10 11 11 11 10 10 12 12 11 9 8 7 8 8 8 8 9 10 9 8 8 8 8 7 7 7 6 5 4 3 2 2 1 0 1 1 1 1 1 1 2 2 2 2 3 3 4 5 4 3 3 3 4 5 3 4 4 4 5 3 4 4 5 5 6 5 4 5 5 3 5 4 5 6 5 4 4 4 4 4 3 4 5 6
10 11 13 13 12 11 9 11 11 9 8 9 8 8 9 9 9 9 11 9 8 9 9 8 8 9 8 8 7 6 5 5 4 4 4 4 4 4 2 2 1 2 2 3 4 4 5 4 5 4 3 2 1 1 3 2 1 2 4 4 4 5 6 5 4 5 5 5 6 4 6 5 6 6 5 4 5 5 5 5 4 4 4 6 7
12 12 13 13 12 10 12 13 9 10 10 9 8 7 7 6 8 9 7 7 7 8 9 9 9 9 10 10 9 8 7 7 6 6 5 5 4 4 4 3 2 0 1 2 2 2 1 2 2 2 4 4 4 1 1 2 0 4 3 5 6 4 5 4 5 6 6 6 5 5 6 6 7 6 6 5 5 5 5 5 5 6 5 4 6
13 13 13 12 11 12 12 10 9 10 10 8 6 7 5 4 6 5 7 7 9 10 9 9 8 9 11 11 10 10 9 8 7 6 6 6 5 5 4 3 2 2 2 2 2 1 1 1 1 1 1 4 4 2 3 3 1 4 5 6 5 5 6 6 7 9 8 5 5 6 7 7 7 7 5 6 6 6 6 6 5 6 5 5 5
11 12 10 12 13 12 11 10 10 10 10 9 8 6 5 5 6 5 5 6 5 5 7 6 8 9 11 11 11 10 10 10 10 9 8 7 6 5 5 4 3 2 3 3 2 2 1 2 2 3 3 1 2 1 4 6 5 1 2 3 6 5 4 3 5 7 7 6 6 7 8 7 9 6 6 5 7 7 6 6 6 6 6 6 6
11 12 12 12 10 11 11 11 10 10 10 10 8 6 5 4 6 7 8 9 5 5 9 11 12 13 12 11 11 10 10 10 10 10 9 9 8 8 6 6 6 3 2 3 3 4 2 2 2 3 2 3 2 4 4 4 3 3 4 4 3 1 8 5 4 5 6 9 9 10 7 9 9 6 4 7 8 6 6 5 7 7 7 7 6
12 11 11 10 8 11 10 10 10 10 10 11 11 8 8 8 6 7 7 8 11 12 12 12 10 9 11 12 10 11 11 11 10 11 9 8 8 8 7 6 6 5 4 4 4 4 3 3 3 3 3 5 6 3 1 3 5 5 4 1 3 2 5 6 4 6 1 1 6 7 5 7 7 5 5 8 5 6 7 6 8 6 7 7 6
11 9 8 9 9 10 11 11 10 11 11 12 11 10 11 11 11 11 11 10 11 12 11 9 10 10 8 5 11 12 11 11 11 11 11 9 9 9 7 8 7 6 5 4 4 4 4 4 3 3 4 4 5 5 3 2 6 6 4 3 2 6 4 3 4 9 2 5 3 2 6 6 4 4 5 7 8 7 6 8 7 8 7 7 7
8 6 8 9 10 10 10 11 10 10 10 11 11 10 12 11 12 11 9 9 9 7 5 6 6 6 7 11 9 11 12 12 11 11 11 10 9 9 9 8 7 7 5 5 6 5 6 4 3 2 4 4 2 5 7 5 1 4 6 8 5 1 0 3 8 4 12 4 1 4 6 5 6 5 7 9 9 7 8 7 8 8 8 7 7
5 6 8 9 11 10 10 10 9 10 10 9 12 11 11 9 10 10 9 10 9 8 8 7 7 7 11 10 9 9 10 11 11 12 12 11 11 11 10 9 9 8 7 7 5 5 6 6 4 3 3 3 3 4 6 5 5 3 3 7 7 5 3 3 3 7 8 11 13 3 3 5 4 7 8 9 10 10 9 8 9 8 7 7 7
7 8 8 8 8 9 9 9 12 10 10 11 11 11 10 10 9 8 11 8 7 7 6 8 9 9 12 11 11 10 10 10 10 11 11 11 10 10 10 10 10 9 7 8 7 6 5 5 7 7 5 5 3 4 4 6 5 5 4 3 3 5 4 5 3 1 5 8 15 10 11 3 3 6 8 9 9 8 9 10 8 7 7 8 8
7 7 6 7 8 8 10 12 12 10 9 11 11 12 11 10 11 11 11 9 7 7 8 10 10 9 11 11 9 10 9 10 10 10 11 11 10 11 10 10 9 9 8 8 8 9 8 6 5 4 5 6 5 4 4 5 5 5 4 4 4 3 2 2 3 4 5 8 13 13 10 10 14 7 6 7 10 11 10 9 8 7 8 9 8
6 6 7 7 7 9 9 13 9 8 10 11 12 12 11 10 10 10 10 10 9 10 11 11 9 10 10 9 9 8 8 8 8 9 10 10 9 9 9 9 8 8 9 9 8 7 7 6 6 5 5 5 6 6 5 5 5 6 5 4 5 6 7 6 5 5 6 6 6 9 7 7 9 13 6 6 8 8 7 7 8 9 10 9 9
Wind_Direction
228 184 181 193 190 184 177 175 174 171 173 170 172 168 163 163 158 156 157 154 152 152 148 145 144 135 132 130 126 124 124 120 117 111 99 94 97 104 99 101 104 107 113 103 96 98 96 92 87 84 79 76 76 78 67 71 71 64 59 60 61 59 63 66 60 55 48 46 49 44 49 54 69 78 79 71 69 70 69 62 56 51 45 45 58
177 190 178 187 191 186 181 175 176 176 174 174 175 171 166 166 162 159 157 159 158 153 157 154 152 143 138 133 129 128 126 124 118 113 107 104 103 105 100 101 108 114 113 108 96 90 91 86 84 80 78 75 72 69 67 60 54 50 51 55 52 53 61 63 56 53 48 41 37 35 18 46 61 63 66 70 71 67 65 63 60 53 38 58 56
147 171 175 182 189 186 184 178 178 178 177 176 175 171 169 165 160 163 164 160 159 161 159 162 159 152 146 142 140 137 135 127 123 119 115 111 110 110 106 105 109 114 107 105 100 90 84 80 78 74 71 70 65 60 55 50 44 41 43 48 50 50 49 48 46 42 34 33 29 31 28 14 50 72 74 73 71 70 70 66 61 58 59 63 62
151 171 169 180 186 187 183 179 180 180 179 178 175 173 171 162 161 164 165 168 163 163 165 165 163 158 155 153 149 148 145 141 133 131 127 116 105 99 107 109 112 110 109 105 93 86 82 80 75 71 66 64 62 59 57 52 45 36 32 40 45 47 47 42 37 29 23 17 17 31 24 21 5 77 79 78 77 72 73 71 66 65 66 66 64
155 161 170 175 181 187 184 178 179 181 182 179 175 175 171 163 163 162 168 170 171 171 170 168 166 164 163 161 161 159 158 153 148 147 143 130 116 111 111 116 119 114 110 101 89 86 82 77 73 69 65 62 60 57 54 52 50 40 27 24 37 42 44 37 26 18 14 31 18 35 21 18 9 71 84 84 78 66 67 70 68 67 60 59 60
158 161 169 175 179 186 186 181 178 181 183 182 177 176 172 167 167 169 171 170 173 174 176 172 170 169 169 169 170 170 165 160 160 155 148 139 131 122 115 116 119 114 111 107 97 85 79 76 71 67 62 57 54 50 46 44 43 42 31 19 26 40 43 33 15 12 7 66 67 48 25 21 19 15 92 94 91 79 71 72 66 62 61 58 55
158 163 166 175 179 185 186 182 178 181 182 184 177 177 177 172 172 173 174 175 177 173 176 175 177 174 175 180 176 175 173 167 164 160 152 142 133 125 117 118 116 112 109 111 101 84 79 70 67 66 60 54 51 46 39 36 34 32 27 22 17 33 42 32 12 16 67 83 93 74 46 38 14 359 82 80 79 89 86 77 70 66 62 55 50
150 163 171 174 178 185 185 182 181 181 183 184 179 179 178 174 175 178 176 178 179 177 178 178 182 180 182 187 182 182 169 164 162 149 146 137 132 127 120 122 115 117 120 112 87 81 70 67 59 61 61 53 44 40 37 33 27 24 22 19 19 26 38 39 35 60 92 96 102 91 79 52 33 31 87 83 77 72 80 79 73 67 67 66 60
163 171 169 174 180 182 186 183 182 184 186 183 179 181 177 176 175 181 181 181 179 180 181 181 185 184 191 190 189 173 170 163 149 145 146 137 131 131 121 93 97 124 133 84 65 60 60 46 48 50 50 44 38 31 29 27 24 21 20 20 21 27 41 42 54 85 92 100 102 106 98 82 70 79 85 84 77 66 59 52 50 61 66 66 65
166 168 172 173 179 184 186 184 185 186 188 183 178 178 177 178 177 182 184 184 183 183 184 186 187 191 194 194 181 172 174 163 152 138 138 137 136 129 91 84 60 43 42 125 106 87 88 82 69 51 49 39 27 24 22 20 19 19 20 26 25 34 43 40 59 70 82 86 88 98 106 106 125 152 99 85 77 71 68 71 78 71 70 68 62
166 172 172 175 180 184 187 187 186 189 189 184 179 176 180 181 178 184 186 186 186 185 188 191 193 195 196 188 173 172 178 171 143 135 137 140 142 122 109 90 72 42 32 16 125 148 122 125 90 59 56 41 22 17 19 18 16 18 25 27 30 38 45 56 64 59 61 72 73 53 86 105 104 84 96 87 81 74 69 73 69 72 75 69 65
170 170 175 178 181 185 188 189 188 190 190 185 180 179 183 184 181 185 188 188 189 188 190 194 198 199 198 190 175 177 180 172 146 142 148 153 148 143 140 123 111 109 24 341 323 143 258 158 96 84 76 54 31 17 11 9 13 18 25 30 33 43 48 56 62 60 57 58 61 48 42 71 113 116 103 93 81 76 73 67 58 49 46 56 68
173 174 177 177 183 190 190 190 190 191 191 186 184 184 187 184 184 187 190 191 192 192 192 194 199 203 200 193 182 181 185 175 156 154 153 170 177 164 147 142 143 142 271 329 284 351 334 332 238 98 80 56 34 13 6 11 10 21 29 31 40 52 58 61 61 63 58 47 42 26 27 11 319 116 117 101 83 69 55 52 49 48 44 48 50
168 179 179 180 187 193 193 193 193 193 192 188 188 186 187 188 187 189 192 193 193 195 194 196 199 203 205 196 192 181 187 186 172 167 163 172 176 176 160 159 151 158 217 250 311 353 318 274 113 99 82 63 30 8 6 12 15 29 38 39 49 65 65 60 63 65 61 48 38 27 25 349 298 207 106 103 102 77 49 37 46 48 45 44 52
170 180 181 178 186 193 199 198 197 196 195 190 189 189 188 189 189 191 194 195 194 196 195 200 202 202 206 198 193 184 191 186 173 177 169 169 174 166 163 160 178 198 253 258 243 291 289 355 95 91 80 61 42 11 1 359 9 26 35 47 66 68 78 76 65 64 63 55 36 40 23 1 267 134 149 137 107 74 68 50 71 50 57 48 41
191 180 177 183 184 190 198 205 202 200 200 193 192 192 192 191 190 192 195 197 197 198 197 201 204 208 206 196 195 183 192 184 179 177 175 173 171 169 170 178 193 227 241 229 226 223 222 90 98 90 83 66 47 13 352 343 344 33 30 47 76 82 81 91 80 69 71 62 44 43 26 13 42 107 158 131 116 134 113 98 48 85 135 342 41
184 191 181 190 189 190 195 201 204 204 203 199 195 195 196 194 192 195 196 197 198 198 199 201 205 205 197 196 196 192 195 176 177 179 173 172 171 169 175 183 202 213 203 210 206 210 196 114 108 100 87 74 58 354 4 359 12 41 39 54 76 83 72 85 81 68 71 64 59 40 14 24 75 82 92 121 114 106 144 182 119 88 62 263 212
193 181 197 192 191 195 197 200 201 204 204 203 201 199 198 196 194 196 199 200 201 200 201 203 205 201 193 191 189 192 203 178 176 172 167 168 174 167 173 193 198 191 196 203 210 203 190 118 121 112 98 89 77 318 17 6 33 48 41 57 73 80 71 77 76 48 54 58 34 15 15 48 97 107 116 120 127 146 153 174 165 130 89 250 151
198 195 203 192 196 195 199 200 203 202 202 200 200 201 200 200 196 198 200 201 203 204 205 204 205 202 191 184 182 191 197 175 170 168 169 170 168 163 174 183 190 191 195 203 205 195 190 135 127 127 124 131 173 139 53 26 77 59 50 57 64 67 71 73 69 51 41 36 16 14 345 7 135 137 136 135 152 168 153 138 143 142 140 130 129
219 205 205 211 198 193 196 201 203 204 203 200 203 200 202 200 198 198 201 201 203 206 208 208 204 201 190 182 186 185 180 173 168 168 170 171 166 165 180 179 187 191 195 199 188 189 173 147 142 141 156 157 171 130 73 177 112 69 63 68 64 72 66 60 65 54 29 21 8 354 334 345 188 188 169 169 168 165 159 154 161 166 165 149 139
234 224 210 207 206 199 197 198 203 205 204 202 205 205 201 200 202 198 198 202 202 203 208 207 202 203 189 184 180 176 177 173 171 168 170 170 171 171 180 185 184 184 183 191 193 183 185 161 154 161 159 181 103 79 19 25 88 61 65 69 77 73 71 76 65 50 33 2 358 334 337 323 255 196 190 168 163 155 160 162 162 176 164 157 145
249 236 227 208 203 209 201 199 199 205 204 202 202 204 201 196 202 201 199 199 200 200 202 197 191 195 197 177 175 169 165 166 171 163 164 166 174 178 184 189 187 180 177 181 195 193 188 177 164 168 177 125 106 78 30 6 29 35 59 76 71 81 68 80 79 59 30 357 354 334 345 290 200 194 182 183 175 177 172 170 178 173 169 146 138
259 242 234 202 204 202 199 200 200 200 204 204 202 200 195 183 204 201 196 192 195 192 188 188 173 176 175 172 164 152 151 145 157 162 161 172 178 188 191 194 189 180 175 176 188 185 192 182 175 179 145 110 88 95 71 30 2 19 53 68 85 86 86 78 81 70 44 334 340 335 343 286 202 196 186 190 188 182 186 185 171 157 174 178 159
274 289 250 209 202 202 201 200 195 194 198 202 202 195 189 179 192 197 190 188 186 186 186 181 175 168 167 152 145 145 149 148 157 165 156 161 189 198 200 198 188 175 179 171 184 179 188 178 183 156 103 95 107 103 99 34 4 20 68 79 97 119 117 128 128 122 27 327 302 330 335 329 213 200 192 194 199 199 203 191 181 177 185 177 187
258 273 280 260 224 207 197 202 192 192 194 197 197 197 179 174 187 201 196 188 179 177 183 179 174 168 164 156 150 138 137 137 134 135 140 132 133 174 216 210 147 171 170 161 167 201 154 147 100 87 123 129 133 185 149 183 293 9 73 79 114 128 136 146 156 156 233 295 291 329 333 330 310 209 206 205 202 207 206 192 195 209 199 210 215
276 269 240 260 273 260 231 200 192 195 195 195 196 188 173 182 185 186 197 204 181 177 173 178 176 171 166 161 146 143 135 129 138 147 137 141 147 170 191 179 149 193 49 156 128 128 124 121 120 129 137 124 158 174 184 182 205 260 230 114 124 147 162 180 188 194 232 275 290 317 330 326 314 302 228 215 206 210 208 202 207 208 211 227 222
271 255 247 230 223 229 229 219 205 197 200 195 192 185 188 178 176 175 181 198 194 172 183 172 175 172 164 162 160 157 149 144 146 146 154 150 169 177 191 180 194 193 168 153 166 120 131 136 137 159 139 151 161 272 281 281 236 231 256 199 173 177 175 195 211 211 229 257 281 297 326 312 307 295 273 225 212 216 223 217 216 216 211 214 233
300 284 271 248 212 211 202 208 213 200 198 189 190 194 188 175 170 162 179 170 197 180 160 176 166 168 161 169 175 162 160 159 162 162 165 159 180 176 157 171 198 215 159 146 157 125 116 111 141 130 152 214 239 278 301 300 286 267 249 228 224 216 202 206 214 224 232 249 261 297 306 310 297 297 293 282 222 224 233 217 227 220 206 224 221
350 327 306 292 251 207 193 210 209 205 192 181 197 193 182 178 164 165 176 155 190 233 156 141 164 180 160 160 165 150 150 161 164 172 150 175 153 162 165 192 187 210 176 177 156 166 154 150 171 179 185 227 283 290 311 301 300 295 257 246 233 233 236 230 227 236 250 256 267 280 290 297 295 292 287 288 249 213 231 223 235 227 217 232 228
338 317 326 305 288 218 198 205 205 197 183 181 196 186 182 185 185 177 159 134 174 166 151 151 147 160 192 153 177 170 173 177 175 172 177 184 183 179 178 188 198 192 182 197 185 163 172 155 152 158 224 269 295 284 322 300 299 290 280 254 243 230 219 217 225 230 244 261 268 277 284 294 290 289 287 288 293 247 226 230 234 227 230 230 240
338 2 358 341 315 308 262 221 187 167 170 196 187 190 169 191 186 181 172 181 144 104 122 146 152 163 190 192 164 182 184 179 179 181 199 198 189 180 197 179 192 196 192 200 166 171 160 175 176 181 192 217 243 300 322 302 296 297 280 267 254 256 244 241 245 246 253 254 265 270 282 287 295 297 297 292 282 286 246 230 232 233 223 230 238
6 4 3 352 11 11 26 49 144 150 163 191 180 180 175 175 163 168 189 196 193 197 174 157 167 184 170 184 187 179 181 186 174 166 182 181 181 191 189 184 208 196 193 183 172 164 166 156 143 141 129 97 308 327 338 319 297 287 300 277 285 269 262 253 247 250 256 266 266 273 279 289 296 305 309 294 284 280 256 236 235 232 236 238 235
360 2 1 26 22 11 17 19 84 88 91 104 120 100 106 133 159 177 168 161 178 190 200 204 202 197 192 197 199 189 185 181 176 175 185 186 177 178 187 211 217 191 179 173 157 145 133 146 155 135 134 126 299 283 309 290 288 291 303 283 304 283 283 287 272 273 264 266 270 278 285 290 300 310 306 306 304 306 305 273 238 233 240 244 231
2 4 20 28 16 18 19 25 17 56 91 100 98 99 115 112 129 145 137 144 163 164 186 197 191 189 190 195 176 174 185 168 169 174 166 177 179 187 195 212 207 174 162 155 168 167 167 171 191 153 189 191 219 238 263 275 264 277 281 287 302 283 303 294 283 275 286 276 279 292 281 289 289 286 291 303 313 320 301 298 314 277 246 238 238
18 22 25 17 28 26 23 35 25 32 28 38 79 99 101 105 112 125 139 157 157 176 180 165 175 191 165 195 197 195 188 182 177 167 175 172 181 194 202 212 174 163 168 179 166 170 171 194 163 187 193 237 241 246 218 240 260 272 272 293 282 290 296 276 294 288 282 277 296 283 284 278 279 284 289 301 313 313 322 314 273 286 296 276 294
26 18 22 21 31 25 24 37 30 31 33 38 43 56 61 58 51 43 48 41 42 35 28 18 13 28 27 188 206 189 183 185 184 177 180 188 190 199 213 176 168 163 173 164 158 181 188 182 191 174 192 239 231 259 227 245 250 269 297 300 287 292 286 290 283 279 269 289 278 282 280 276 279 279 279 281 285 298 308 321 312 291 311 338 296
27 28 26 26 29 21 24 29 26 23 29 38 49 54 56 60 58 56 55 49 40 34 28 32 43 46 35 31 13 357 354 357 340 210 201 194 196 208 194 166 160 171 171 171 187 180 174 184 198 206 199 217 211 243 251 236 255 264 279 281 276 295 288 280 273 262 284 274 274 275 282 275 272 273 267 268 271 290 312 311 320 328 327 311 301
36 35 35 38 34 25 26 27 22 22 26 31 41 52 58 61 58 58 55 53 45 36 33 37 34 31 49 52 58 65 62 54 42 25 352 7 352 337 95 148 151 154 165 172 187 154 180 181 211 215 205 204 216 224 240 235 235 258 273 266 275 289 283 287 273 272 267 269 265 260 252 270 278 267 266 263 264 276 278 288 294 313 316 307 292
36 35 37 36 37 31 30 29 25 17 20 26 33 49 51 55 58 53 51 47 44 41 38 41 28 26 26 25 35 43 48 58 64 68 62 39 37 47 65 68 91 120 138 151 160 171 189 203 210 219 213 224 216 218 228 210 238 255 264 276 302 276 269 262 269 273 269 249 251 253 266 263 259 258 258 260 270 268 262 267 287 294 289 294 291
36 35 37 36 34 33 32 34 25 14 22 34 32 38 49 47 47 41 43 33 37 43 38 37 29 30 18 21 23 27 37 48 49 48 55 40 28 30 51 59 88 119 148 176 208 200 212 203 231 209 214 243 243 181 171 160 239 281 283 295 259 243 248 242 261 267 269 258 253 267 258 253 244 249 250 254 261 258 257 260 262 261 273 283 288
40 36 40 35 34 32 37 33 16 21 29 27 31 34 38 42 51 55 61 37 38 41 42 30 35 30 27 26 21 15 16 31 27 30 36 42 43 39 44 44 39 36 312 296 333 284 292 223 205 186 203 226 257 177 138 121 29 311 295 269 282 251 246 240 253 253 244 243 255 254 249 246 244 241 240 240 244 248 249 252 250 256 261 269 277
31 36 38 34 32 32 38 32 24 28 28 22 23 45 30 51 89 81 88 52 43 41 35 29 28 35 33 28 24 20 24 23 15 26 34 33 23 20 27 23 37 23 357 354 5 6 262 238 109 276 244 217 249 166 191 129 340 231 290 325 318 298 249 224 237 241 235 228 224 229 241 240 248 239 240 237 244 241 243 242 242 245 246 247 251
43 40 34 38 33 32 30 30 29 31 25 19 24 30 32 40 65 54 70 92 67 77 75 53 43 42 39 33 29 26 24 27 21 20 24 20 23 23 18 11 19 18 345 329 343 304 271 227 204 233 259 330 290 214 196 195 223 114 121 7 303 343 333 326 269 256 245 227 217 227 231 235 243 237 232 237 241 238 239 238 240 236 237 234 236
41 38 34 36 36 34 30 27 30 34 31 23 18 8 32 53 58 68 60 68 60 33 47 39 32 33 31 30 33 27 30 34 27 26 28 29 24 20 7 11 3 18 356 324 322 305 321 300 270 274 312 291 255 254 206 220 164 130 298 216 239 41 315 290 296 285 229 219 212 227 220 228 233 234 226 235 236 236 239 232 236 234 233 233 231
40 37 34 36 39 36 34 33 31 33 35 27 24 16 27 31 29 51 51 45 34 32 32 25 23 26 29 25 17 24 28 32 29 29 28 25 26 24 22 15 14 358 4 345 330 310 293 254 236 242 225 245 275 270 264 214 229 236 177 70 317 312 232 263 339 280 346 281 251 242 247 242 245 239 234 247 252 240 236 236 237 238 239 236 235
40 32 36 41 43 41 38 38 39 35 34 33 30 37 42 42 38 38 37 40 42 29 28 17 13 21 15 357 24 25 26 28 27 25 24 22 23 21 20 19 18 11 10 345 327 334 326 314 283 259 268 252 263 308 300 226 238 255 273 260 192 258 292 270 357 291 325 217 254 266 245 246 257 255 251 258 250 245 235 241 236 238 234 234 235
35 30 42 46 47 47 45 45 45 41 35 38 37 46 52 49 51 53 52 52 59 42 35 33 36 23 33 33 25 27 26 27 23 24 19 18 19 19 18 20 21 16 4 8 356 340 327 318 322 276 268 290 264 265 269 267 194 251 246 255 278 266 95 323 266 343 297 322 264 257 255 242 233 231 241 243 243 242 240 237 242 237 235 230 231
31 41 46 45 48 47 49 50 52 50 43 43 49 47 61 58 62 60 56 54 52 48 33 36 39 36 42 32 33 31 29 30 27 23 21 18 15 16 13 16 20 16 9 11 356 340 340 333 337 315 307 293 271 251 271 278 261 280 209 244 251 253 225 263 234 242 277 294 289 284 243 258 240 236 237 244 241 236 240 229 233 236 239 237 232
37 44 45 46 52 51 53 55 54 52 46 50 57 51 59 61 64 64 63 51 55 49 46 44 42 32 43 30 32 26 28 29 31 29 26 23 21 15 13 15 16 10 10 9 6 3 0 347 341 340 329 310 282 276 291 280 274 264 285 280 242 256 250 228 232 186 246 276 279 283 286 316 246 244 249 241 251 245 237 238 231 233 232 237 227
38 46 47 50 54 57 55 56 51 49 48 53 57 56 54 57 60 56 65 57 50 49 51 44 40 34 42 32 26 25 19 21 20 24 24 20 20 17 19 17 11 7 10 9 8 9 6 360 350 337 328 319 311 294 264 275 278 280 251 278 286 306 292 280 219 229 251 217 259 275 283 290 287 264 210 242 242 239 237 235 232 226 230 232 228
39 49 51 51 54 57 58 59 49 51 50 53 57 57 55 55 60 56 56 55 47 51 50 42 36 37 39 28 24 16 15 17 14 17 23 16 15 19 17 12 12 13 12 11 8 2 359 356 348 348 339 327 314 314 306 286 279 279 273 247 253 243 250 257 254 224 231 261 277 271 271 256 252 281 251 245 244 248 236 228 230 233 234 233 231